Regional Weather Roundup
Issued by NWS

Home | Current Version | Previous Version | Text Only | Print | Product List | Glossary On
Versions: 1 2 3 4 5 6 7 8 9 10 11 12 13 14 15 16 17 18 19 20 21 22 23 24 25 26 27 28 29 30 31 32 33 34 35 36 37 38 39 40 41 42 43 44 45 46 47 48 49 50
074
ASUS44 KJAN 220103
RWRMS

MISSISSIPPI HOURLY WEATHER ROUNDUP
NATIONAL WEATHER SERVICE JACKSON MS
800 PM CDT SUN SEP 21 2014

NOTE: "FAIR: INDICATES FEW OR NO CLOUDS BELOW 12,000 FEET WITH NO
SIGNIFICANT WEATHER AND/OR OBSTRUCTIONS TO VISIBILITY.

MSZ001>002-007>008-010>013-018>021-025>028-034>036-220200-
NORTHWEST MISSISSIPPI

CITY           SKY/WX    TMP DP  RH WIND       PRES   REMARKS
CLARKSDALE     CLOUDY    81  73  78 CALM      30.00R
CLEVELAND      CLOUDY    84  72  67 N8        29.98R
GREENWOOD      MOCLDY    77  71  82 CALM      29.97R
GREENVILLE     CLEAR     83  69  62 NW9       29.98R
GRENADA        CLOUDY    77  70  78 CALM      29.98R
OLIVE BRANCH   MOCLDY    77  72  83 N10       30.01R
OXFORD         FAIR      77  72  83 N5        30.01R
TUNICA         CLEAR     77  68  73 N9        30.00R
$$

MSZ003>006-009-014>017-022>024-029>033-037>039-220200-
NORTHEAST MISSISSIPPI

CITY           SKY/WX    TMP DP  RH WIND       PRES   REMARKS
COLUMBUS AFB   PTCLDY    77  71  81 W2        29.97R
CORINTH        FAIR      75  70  83 CALM      29.98R
GOLDN TRIANGLE CLOUDY    82  64  54 CALM      29.97S
STARKVILLE     FAIR      75  68  78 CALM      29.97R
TUPELO         LGT RAIN  79  71  76 NW3       29.97R
$$

MSZ040-058-220200-
CENTRAL MISSISSIPPI

CITY           SKY/WX    TMP DP  RH WIND       PRES   REMARKS
JACKSON INTL   PTCLDY    77  68  73 CALM      29.99R
JACKSON HAWKNS CLEAR     80  68  66 CALM      29.99R
MERIDIAN KEY   CLEAR     76  69  79 S5        29.99R
MERIDIAN NAS   PTCLDY    80  68  66 NW5       29.99R
RAYMOND        FAIR      75  70  83 MISG      29.99R
VICKSBURG      PTCLDY    78  69  73 S3        29.98R
$$

MSZ059>079-220200-
SOUTH MISSISSIPPI

CITY           SKY/WX    TMP DP  RH WIND       PRES   REMARKS
BROOKHAVEN     FAIR      75  68  78 CALM      30.02R
COLUMBIA       FAIR      73  70  88 CALM      29.98S
HATTIESBURG    CLEAR     76  71  85 CALM      30.00R
MCCOMB         CLEAR     76  67  73 CALM      30.00R
NATCHEZ        PTCLDY    77  72  83 CALM      30.00R
PINE BELT      CLEAR    N/A N/A N/A CALM      30.01S
$$

MSZ080>082-220200-
COASTAL MISSISSIPPI

CITY           SKY/WX    TMP DP  RH WIND       PRES   REMARKS
BILOXI         CLEAR     81  70  69 SE3       29.99R
PASCAGOULA     CLEAR     73  70  90 CALM      29.99R
GULFPORT       CLEAR     77  71  82 CALM      29.99R
$$



USA.gov is the U.S. government's official web portal to all federal, state and local government web resources and services.